Regional Weather Roundup
Issued by NWS Newport/Morehead, NC

Current Version | Previous Version | Text Only | Print | Product List | Glossary Off
Versions: 1 2 3 4 5 6 7 8 9 10 11 12 13 14 15 16 17 18 19 20 21 22 23 24 25 26 27 28 29 30 31 32 33 34 35 36 37 38 39 40 41 42 43 44 45 46 47 48 49 50
000 ASUS42 KMHX 290425 RWRMHX WEATHER ROUNDUP FOR EASTERN NORTH CAROLINA NATIONAL WEATHER SERVICE NEWPORT/MOREHEAD CITY NC 1200 AM EDT THU SEP 29 2016 NOTE: "FAIR" INDICATES FEW OR NO CLOUDS BELOW 12,000 FEET WITH NO SIGNIFICANT WEATHER AND/OR OBSTRUCTIONS TO VISIBILITY NCZ015>017-031-032-045>047-102-103-290500- NORTH COAST CITY SKY/WX TMP DP RH WIND PRES REMARKS EDENTON CLEAR 75 75 100 SE7 30.01R ELIZABETH CITY CLEAR 74 71 91 SE9 30.01F KITTY HAWK CLEAR 74 74 100 SE6 30.01F MANTEO CLEAR 73 73 99 SE6 30.02F $$ NCZ045>047-081-094-103-104-290500- CENTRAL COAST CITY SKY/WX TMP DP RH WIND PRES REMARKS FRISCO PTCLDY 77 73 87 SE5 30.01S $$ NCZ095-097-098-100-101-290500- SOUTHERN COAST CITY SKY/WX TMP DP RH WIND PRES REMARKS BEAUFORT CLEAR 78 73 84 S6 29.99F CEDAR ISLAND NOT AVBL JACKSONVILLE CLEAR 74 70 87 S6 29.97F PINEY ISLAND CLEAR N/A N/A N/A SE7 29.99F WILMINGTON PTCLDY 74 71 91 S6 29.98F $$ NCZ011>013-027>030-043-044-078>080-089-090>093-098-290500- COASTAL PLAIN CITY SKY/WX TMP DP RH WIND PRES REMARKS AHOSKIE CLOUDY 70 70 98 CALM 30.02R CLINTON CLEAR 74 71 92 CALM 29.99R ELIZABETHTOWN CLEAR 75 71 87 S7 29.97S GOLDSBORO PTCLDY 74 74 100 VRB2 29.98R GREENVILLE CLOUDY 73 72 94 S8 30.01R HAVELOCK CLEAR 73 69 87 SE7 29.99F KENANSVILLE CLEAR 70 70 100 CALM 30.00R KINSTON CLEAR 73 71 92 CALM 30.01R NEW BERN CLEAR 73 69 87 CALM 30.01S RICHLANDS CLEAR 73 70 90 CALM 29.99R ROCKY MOUNT MOCLDY 72 72 100 CALM 30.00R FOG WASHINGTON CLEAR 73 69 87 SE6 30.00R WHITEVILLE CLEAR 75 71 87 SE3 29.98R $$ AMZ130-135-150-152-154-156-158-170-250-252-270-ANZ085-086-088-633-658-670-290500- MARINE OBSERVATIONS STATION/POSITION TIME TEMP WIND PRES WAVE SWELL AIR SEA DIR/SP/G HT/PER HT/PER (UTC) (F) (DEG/KT/KT) (MB) (FT/S) (FT/S) CHESAPEAKE LIGHT NOT AVBL 64 E VA BEACH 0350 75 74 120/ 6/ 6 1016.9 6/ 8 5/ 8 DUCK 0400 76 77 130/ 13/ 15 1015.7 2 E DUCK 0341 77 N/A 3/ 8 2/11 OREGON INLET 0400 75 78 80/ 3/ 5 1016.4 13E OREGON INLT 0400 77 N/A 4/ 8 3/ 8 HATTERAS CG 0400 79 79 140/ 5/ 7 1015.9 DIAMOND BUOY 0350 81 83 150/ 14/ 16 1016.1 4/ 7 3/ 7 CAPE LOOKOUT 0400 80 160/ 8/ 9 1015.5 BEAUFORT LAB 0400 80 77 170/ 9/ 11 1015.0 30 SE NEW RVR IN 0308 81 83 160/ 12/ 16 1015.7 30 SE NEW RVR IN 0355 83 N/A 3/11 2/11 27 SE WRIGHTSVLE 0308 80 81 170/ 12/ 14 1016.0 5 SE WRIGHTSVLE 0308 81 81 180/ 12/ 17 1016.5 225 S CAPE HAT 0350 81 83 190/ 16/ 19 1016.7 4/ 6 2/11 41 SE CHARLESTON 0350 83 82 190/ 12/ 16 1014.5 3/ 9 2/ 9 $$

USA.gov is the U.S. government's official web portal to all federal, state and local government web resources and services.